DELTA 2 R/B, 25876

Orbit data source: Space-Track

DELTA 2 R/B, 25876 is space debris in LEO originally from a launch on Sun, 25 Jul 1999 UTC launched from the Air Force Eastern Test Range (AFETR). Debris objects in space refer to the collection of defunct objects orbiting the Earth. Examples of debris include non-operational satellites, rocket bodies, and fragments generated from explosions, collisions, or faulty payload assembly.

Loading next visibility...
Identifier
25876, 1999-041E
Orbit
LEO
Country
Flag of USUS
Related business
Manufacturer
Boeing/HB
Mission
Spacecraft
Bus & Motor
DELTA/0020, Unknown motor
Mass
1,188 kg wet, 919 kg dry
Launch date (UTC)
1999-07-25 (27 years ago)
Launch vehicle
Unknown
Launch site
Air Force Eastern Test Range (AFETR)
Object type
Payload
Rocket body
Debris
Shape & HBR
Cyl + Cone, 3.0 m
Radar Cross Section
13.645 m², Large (>1 m²)

Expand to show TLE details & history
Last TLE update: 10 hours ago

TLE from 10 hours ago
0 DELTA 2 R/B
1 25876U 99041E   26122.16902277  .00000375  00000-0  99866-4 0  9995
2 25876  51.7608  87.6287 0502328 146.1354 217.2749 14.11939571370585
Epoch: 2026-05-02T04:03Z
TLE epoch observation values (Epoch: 2026-05-02T04:03:23.567Z)
Latitude
-0.00002°
Longitude
166.6897°
Altitude
1,148.796 km
Speed
7.13 km/s
True Right ascension
05h 50m 30s
True Declination
0° 00' 00"
Sunlit
Object was in daylight at epoch
Visualization orbit readout
Latitude
Unknown
Longitude
Unknown
Altitude
Unknown
Speed
Unknown
Apparent Right ascension
Unknown
Apparent Declination
Unknown
Sunlit
N/A
Visualization observer readout
Local Sidereal Time
21:52:41
Azimuth
Unknown
Elevation
Unknown
Doppler factor
Unknown
Orbital elements
Apogee altitude
1,216.453 km
Perigee altitude
489.952 km
Semi-major axis
7,231.34 km
Eccentricity
0.05023
Inclination
51.7608°
RAAN
87.6287°
Arg. of periapsis
146.1354°
True anomaly
213.95672°
Mean anomaly
217.2749°
Eccentric anomaly
215.5995°
Mean motion
3.52951 °/min
Orbital period
102 mins
BSTAR
0.000099866
Loading maneuver chart data...
Computing Atmospheric mass density...
Loading historical data...
Loading historical data...
Loading historical data...
Loading historical data...
Loading historical data...
Loading historical data...
Loading historical data...
Other satellites on launch #41 in the year 1999 (1999-07-25 UTC)

Documentation

Showing up to 5 results
|